| time (UTC) | temp F | wind direction | speed MPH | gust MPH | rain 1hr in | rain 24hr in | rain mn in | humidity % | barometer mb |
| 20260504184459 | 65 | 193 | 7.0 | 17.0 | 0.00 | 0.00 | 0.00 | 35 | 1010.3 |
| 20260504183002 | 66 | 193 | 4.0 | 12.0 | 0.00 | 0.00 | 0.00 | 37 | 1010.4 |
| 20260504181501 | 66 | 79 | 6.0 | 23.0 | 0.00 | 0.00 | 0.00 | 34 | 1010.3 |
| 20260504180004 | 65 | 220 | 7.0 | 19.0 | 0.00 | 0.00 | 0.00 | 36 | 1010.4 |
| 20260504174459 | 66 | 209 | 5.0 | 20.0 | 0.00 | 0.00 | 0.00 | 33 | 1010.5 |
| 20260504173000 | 64 | 212 | 7.0 | 17.0 | 0.00 | 0.00 | 0.00 | 36 | 1010.6 |
| 20260504171459 | 65 | 167 | 7.0 | 16.0 | 0.00 | 0.00 | 0.00 | 37 | 1010.8 |
| 20260504081502 | 32 | 198 | 0.0 | 0.0 | 0.00 | 0.00 | 0.00 | 85 | 1013.7 |
| 20260504044457 | 36 | 198 | 0.0 | 0.0 | 0.00 | 0.00 | 0.00 | 77 | 1013.6 |
| 20260504043005 | 36 | 198 | 0.0 | 0.0 | 0.00 | 0.00 | 0.00 | 76 | 1013.5 |
| 20260504040006 | 37 | 198 | 0.0 | 0.0 | 0.00 | 0.00 | 0.00 | 74 | 1013.2 |
| 20260504034501 | 37 | 198 | 0.0 | 2.0 | 0.00 | 0.00 | 0.00 | 74 | 1013.1 |
| 20260504033005 | 37 | 198 | 0.0 | 0.0 | 0.00 | 0.00 | 0.00 | 72 | 1013.0 |
| 20260504031504 | 38 | 198 | 0.0 | 0.0 | 0.00 | 0.00 | 0.00 | 70 | 1013.0 |
| 20260504030004 | 38 | 198 | 0.0 | 0.0 | 0.00 | 0.00 | 0.00 | 69 | 1013.1 |
| 20260504024503 | 39 | 198 | 0.0 | 0.0 | 0.00 | 0.00 | 0.00 | 67 | 1013.1 |
| 20260504023004 | 40 | 198 | 0.0 | 0.0 | 0.00 | 0.00 | 0.00 | 66 | 1013.1 |
| 20260504021505 | 40 | 198 | 0.0 | 0.0 | 0.00 | 0.00 | 0.00 | 64 | 1013.1 |
| 20260504020006 | 41 | 198 | 0.0 | 0.0 | 0.00 | 0.00 | 0.00 | 62 | 1013.1 |
| 20260504014504 | 42 | 198 | 0.0 | 0.0 | 0.00 | 0.00 | 0.00 | 62 | 1013.0 |
| 20260504013005 | 43 | 198 | 0.0 | 0.0 | 0.00 | 0.00 | 0.00 | 61 | 1012.9 |
| 20260504011502 | 45 | 198 | 0.0 | 0.0 | 0.00 | 0.00 | 0.00 | 59 | 1012.6 |
| 20260504010005 | 46 | 198 | 0.0 | 0.0 | 0.00 | 0.00 | 0.00 | 55 | 1012.6 |
| 20260504003005 | 51 | 198 | 0.0 | 0.0 | 0.00 | 0.00 | 0.00 | 41 | 1012.4 |
| 20260503234502 | 53 | 248 | 2.0 | 4.0 | 0.00 | 0.00 | 0.00 | 35 | 1011.9 |
| 20260503233002 | 54 | 232 | 4.0 | 9.0 | 0.00 | 0.00 | 0.00 | 36 | 1011.6 |
| 20260503231500 | 54 | 163 | 5.0 | 11.0 | 0.00 | 0.00 | 0.00 | 34 | 1011.6 |
| 20260503230004 | 55 | 213 | 5.0 | 15.0 | 0.00 | 0.00 | 0.00 | 33 | 1011.6 |
| 20260503224501 | 55 | 213 | 5.0 | 15.0 | 0.00 | 0.00 | 0.00 | 34 | 1011.5 |
| 20260503223004 | 55 | 193 | 6.0 | 14.0 | 0.00 | 0.00 | 0.00 | 36 | 1011.6 |
| 20260503221500 | 55 | 258 | 5.0 | 15.0 | 0.00 | 0.00 | 0.00 | 34 | 1011.5 |
| 20260503220005 | 55 | 291 | 5.0 | 14.0 | 0.00 | 0.00 | 0.00 | 32 | 1011.4 |
| 20260503214502 | 55 | 200 | 7.0 | 15.0 | 0.00 | 0.00 | 0.00 | 31 | 1011.4 |
| 20260503213000 | 54 | 188 | 7.0 | 17.0 | 0.00 | 0.00 | 0.00 | 32 | 1011.2 |
| 20260503211503 | 55 | 298 | 7.0 | 13.0 | 0.00 | 0.00 | 0.00 | 34 | 1011.1 |
| 20260503210006 | 54 | 243 | 6.0 | 14.0 | 0.00 | 0.00 | 0.00 | 34 | 1011.2 |
| 20260503204504 | 54 | 321 | 6.0 | 12.0 | 0.00 | 0.00 | 0.00 | 29 | 1010.9 |
| 20260503203003 | 55 | 218 | 7.0 | 12.0 | 0.00 | 0.00 | 0.00 | 32 | 1011.0 |
| 20260503201501 | 54 | 235 | 7.0 | 20.0 | 0.00 | 0.00 | 0.00 | 30 | 1011.2 |
| 20260503200006 | 55 | 141 | 6.0 | 17.0 | 0.00 | 0.00 | 0.00 | 29 | 1011.4 |
| 20260503194502 | 53 | 192 | 8.0 | 21.0 | 0.00 | 0.00 | 0.00 | 30 | 1011.6 |
| 20260503193004 | 53 | 236 | 8.0 | 19.0 | 0.00 | 0.00 | 0.00 | 28 | 1011.5 |
| 20260503191503 | 53 | 282 | 7.0 | 16.0 | 0.00 | 0.00 | 0.00 | 31 | 1011.7 |
| 20260503190002 | 52 | 251 | 9.0 | 21.0 | 0.00 | 0.00 | 0.00 | 31 | 1011.9 |